Location: Brompton
(51.4000°N, 0.5333°E)
Time: 04:04:15
(UTC+00:00)

Gbstr 26 Del rocket - Pass Details

Date: 11 May 2021
Orbit: 493 x 1263 km, 51.8° (Epoch: 13 June)

Event Time Altitude Azimuth Distance (km) Brightness Sun altitude
Rises 22:08:12 0° 283° (WNW) 4,140 7.9 -16.7°
Reaches altitude 10° 22:11:11 10° 283° (WNW) 3,109 7.1 -16.9°
Maximum altitude 22:18:47 80° 198° (SSW) 1,070 4.1 -17.4°
Enters shadow 22:23:50 17° 114° (ESE) 2,169 5.4 -17.7°
